Погода в Сулости

Россия / Ярославская область     57°12′08″N   39°31′10″E
темп.,
°C
ветер,
м/с
пор.,
м/с
влажн.,
%
обл.,
%
осадки,
мм/ч
давл.,
гПа
погр.,
м
11 мая, вт
вт1100:00+5св22755 0.0 102811
03:00+4св22765 0.0 102922
06:00+6всв258141 0.0 1030129
09:00+12всв46625 0.0 1030537
12:00+16всв56505 0.0 1029889
15:00+17в55460 0.0 1028945
18:00+17всв36625 0.0 1027254
21:00+11в35720 0.0 102849
12 мая, ср
ср1200:00+10вюв33810 0.0 102826
03:00+9в22890 0.0 102811
06:00+11в249071 0.0 1028113
09:00+17всв457648 0.0 1027437
12:00+21всв67635 0.0 1026982
15:00+22в710635 0.3 10241691
18:00+17юв61285100 2.4 1023441
21:00+15вюв51381100 2.8 1022421
13 мая, чт
чт1300:00+14юв5119188 0.0 1023502
03:00+13вюв4894100 0.0 1023326
06:00+13вюв389585 0.0 1023275
09:00+16вюв5883100 0.0 1022644
12:00+20вюв686416 0.1 10191405
15:00+17юв91578100 0.9 10181119
18:00+16юв61183100 0.8 10171008
21:00+14ююв599494 1.8 1017448
14 мая, пт
пт1400:00+11ююз34977 0.0 101878
03:00+10ю229742 0.0 101823
06:00+12ююв249660 0.0 1019138
09:00+16ююв4582100 0.0 1019547
12:00+19ю5771100 0.1 10191244
15:00+21ю466310 0.3 10181385
18:00+19юв3677100 1.1 1016160
21:00+16вюв41087100 1.3 1015188
15 мая, сб
сб1500:00+15всв4696100 4.3 1014118
03:00+15в3496100 5.9 101277
06:00+15ююв31094100 0.0 1012308
09:00+19ююв5884100 0.0 1011414
12:00+22ююв5874100 0.0 1009790
15:00+22ю477668 1.9 1008739
18:00+17ююв51190100 2.4 1008358
21:00+16ю61391100 5.6 1008318